STARLINK-37039, 69361

Orbit data source: Space-Track

STARLINK-37039, 69361 is a payload satellite owned by SpaceX/Seattle (US) in LEO that was launched on Thu, 04 Jun 2026 UTC via an FALCON 9 launch vehicle from the Air Force Eastern Test Range (AFETR). Payload-class satellites include a variety of spacecraft equipped with specific instruments for various scientific and technological missions. These include communications satellites like Starlink; space stations such as the ISS; scientific satellites like the Hubble; Earth observation satellites from companies like Planet Labs, Umbra, and HawkEye 360; GPS; miniature CubeSats for education and research; and military/defense satellites.

Loading next visibility...
Identifier
69361, 2026-123J
Orbit
LEO
Country
Flag of USUS
Related business
Manufacturer
SpaceX/Seattle
Mission
Operational spacecraft
Bus & Motor
STARLINK V2MO, Unknown motor
Mass
575 kg wet, ~530 kg dry
Launch date (UTC)
2026-06-04 (2 months ago)
Launch vehicle
FALCON 9
Launch site
Air Force Eastern Test Range (AFETR)
Object type
Payload
Rocket body
Debris
Shape & HBR
Unknown shape, 17.7 m
Radar Cross Section
Large (>1 m²)

Expand to show TLE details & history
Last TLE update: 17 hours ago

TLE from 17 hours ago
0 STARLINK-37039
1 69361U 26123J   26201.96384891  .00177582  00000-0  11381-2 0  9994
2 69361  53.1588  73.6486 0001093  84.5495 275.5650 15.75245648  7362
Epoch: 2026-07-20T23:07Z
TLE epoch observation values (Epoch: 2026-07-20T23:07:56.545Z)
Latitude
-0.00004°
Longitude
147.92262°
Altitude
344.778 km
Speed
7.703 km/s
True Right ascension
04h 54m 35s
True Declination
0° 00' 00"
Sunlit
Object was in daylight at epoch
Visualization orbit readout
Latitude
Unknown
Longitude
Unknown
Altitude
Unknown
Speed
Unknown
Apparent Right ascension
Unknown
Apparent Declination
Unknown
Sunlit
N/A
Visualization observer readout
Local Sidereal Time
05:06:24
Azimuth
Unknown
Elevation
Unknown
Doppler factor
Unknown
Orbital elements
Apogee altitude
344.928 km
Perigee altitude
343.459 km
Semi-major axis
6,722.331 km
Eccentricity
0.00011
Inclination
53.1588°
RAAN
73.6486°
Arg. of periapsis
84.5495°
True anomaly
275.55253°
Mean anomaly
275.565°
Eccentric anomaly
275.55877°
Mean motion
3.93789 °/min
Orbital period
91.42 mins
BSTAR
0.0011381
Loading maneuver chart data...
Computing Atmospheric mass density...
Loading historical data...
Loading historical data...
Loading historical data...
Loading historical data...
Loading historical data...
Loading historical data...
Loading historical data...

Documentation

Showing up to 5 results
|